Weather History for Mineola, TX

Change the Weather History Date:

Saturday, March 1, 2014

  Actual Average (KTYR) Record (KTYR)
Temperature  
Mean Temperature 66 °F 54 °F  
Max Temperature 78 °F 64 °F 83 °F (1997)
Min Temperature 53 °F 44 °F 20 °F (1968)
Degree Days  
Heating Degree Days 0 12  
Month to date heating degree days 12  
Since 1 July heating degree days 1904  
Cooling Degree Days 0 0  
Month to date cooling degree days 0  
Year to date cooling degree days 12  
Growing Degree Days 16 (Base 50)    
Moisture  
Dew Point 60 °F    
Average Humidity 83    
Maximum Humidity 100    
Minimum Humidity 51    
Precipitation  
Precipitation 0.00 in 0.14 in 2.32 in (1994)
Month to date precipitation 0.14  
Year to date precipitation 7.01  
Snow  
Snow 0.00 in - - ()
Month to date snowfall  
Since 1 July snowfall  
Snow Depth -    
Sea Level Pressure  
Sea Level Pressure 29.95 in    
Wind  
Wind Speed 2 mph (South)    
Max Wind Speed 13 mph    
Max Gust Speed 21 mph    
Visibility 7 miles    
Events Fog    
T = Trace of Precipitation, MM = Missing Value Source: NWS Daily Summary

Daily Weather History Graph

Daily Weather History Graph

Search for Another Location

Airport:

Trip Planner

Search our weather history database for the weather conditions in past years. The results will help you decide how hot, cold, wet, or windy it might be!

Date:

Astronomy

Mar. 01, 2014 Rise Set
Actual Time 6:49 AM CST 6:19 PM CST
Civil Twilight 6:24 AM CST 6:44 PM CST
Nautical Twilight 5:56 AM CST 7:12 PM CST
Astronomical Twilight 5:27 AM CST 7:41 PM CST
Moon 6:47 AM CST (3/1) 7:02 PM CST (3/1)
Length of Visible Light 12h 19m
Length of Day
11h 29m
New Moon, 0% of the Moon is Illuminated
Mar 1
New Moon
Mar 8
First Quarter
Mar 16
Full
Mar 23
Last Quarter
Mar 30
New

Hourly Weather History & Observations

Time (CST) Temp. Dew Point Humidity Pressure Visibility Wind Dir Wind Speed Gust Speed Precip Events Conditions
12:15 AM 57.2 °F 57.2 °F 100% 29.89 in 3.0 mi Calm Calm - N/A   Overcast
12:35 AM 57.2 °F 57.2 °F 100% 29.89 in 3.0 mi Calm Calm - N/A   Overcast
12:55 AM 59.0 °F 59.0 °F 100% 29.89 in 3.0 mi Calm Calm - N/A   Overcast
1:15 AM 59.0 °F 59.0 °F 100% 29.89 in 3.0 mi Calm Calm - N/A   Overcast
1:35 AM 57.2 °F 57.2 °F 100% 29.90 in 3.0 mi Calm Calm - N/A   Overcast
1:55 AM 57.2 °F 57.2 °F 100% 29.90 in 2.5 mi Calm Calm - N/A   Overcast
2:20 AM 57.2 °F 57.2 °F 100% 29.90 in 0.2 mi Calm Calm - N/A Fog Fog
2:35 AM 55.4 °F 55.4 °F 100% 29.90 in 0.2 mi Calm Calm - N/A Fog Fog
2:55 AM 55.4 °F 55.4 °F 100% 29.90 in 0.2 mi Calm Calm - N/A Fog Fog
3:15 AM 53.6 °F 53.6 °F 100% 29.90 in 0.2 mi Calm Calm - N/A Fog Fog
3:35 AM 53.6 °F 53.6 °F 100% 29.90 in 0.2 mi Calm Calm - N/A Fog Fog
3:55 AM 53.6 °F 53.6 °F 100% 29.90 in 0.2 mi Calm Calm - N/A Fog Fog
4:15 AM 55.4 °F 55.4 °F 100% 29.91 in 0.2 mi Calm Calm - N/A Fog Fog
4:35 AM 55.4 °F 55.4 °F 100% 29.92 in 0.2 mi Calm Calm - N/A Fog Fog
4:55 AM 55.4 °F 55.4 °F 100% 29.92 in 0.2 mi Calm Calm - N/A Fog Fog
5:15 AM 55.4 °F 55.4 °F 100% 29.94 in 0.5 mi Calm Calm - N/A Fog Fog
5:35 AM 55.4 °F 55.4 °F 100% 29.95 in 1.2 mi Calm Calm - N/A   Overcast
5:55 AM 55.4 °F 55.4 °F 100% 29.95 in 1.5 mi Calm Calm - N/A   Overcast
6:15 AM 55.4 °F 55.4 °F 100% 29.96 in 1.8 mi Calm Calm - N/A   Overcast
6:35 AM 55.4 °F 55.4 °F 100% 29.96 in 1.8 mi Calm Calm - N/A   Overcast
7:00 AM 55.4 °F 55.4 °F 100% 29.96 in 1.0 mi Calm Calm - N/A   Overcast
7:15 AM 55.4 °F 55.4 °F 100% 29.97 in 1.0 mi Calm Calm - N/A   Overcast
7:35 AM 57.2 °F 57.2 °F 100% 29.97 in 1.0 mi Calm Calm - N/A   Overcast
7:55 AM 57.2 °F 57.2 °F 100% 29.98 in 1.5 mi Calm Calm - N/A   Overcast
8:15 AM 59.0 °F 59.0 °F 100% 29.98 in 1.8 mi Calm Calm - N/A   Overcast
8:35 AM 60.8 °F 60.8 °F 100% 29.98 in 3.0 mi Calm Calm - N/A   Overcast
8:55 AM 62.6 °F 62.6 °F 100% 29.99 in 5.0 mi Calm Calm - N/A   Overcast
9:15 AM 62.6 °F 62.6 °F 100% 30.00 in 8.0 mi South 8.1 mph - N/A   Overcast
9:35 AM 64.4 °F 64.4 °F 100% 30.00 in 9.0 mi South 5.8 mph - N/A   Overcast
9:55 AM 66.2 °F 62.6 °F 88% 30.01 in 9.0 mi SSW 6.9 mph - N/A   Overcast
10:15 AM 68.0 °F 60.8 °F 78% 30.01 in 9.0 mi South 5.8 mph - N/A   Mostly Cloudy
10:35 AM 69.8 °F 60.8 °F 73% 30.01 in 9.0 mi South 3.5 mph - N/A   Mostly Cloudy
10:55 AM 71.6 °F 60.8 °F 69% 30.01 in 10.0 mi South 8.1 mph - N/A   Mostly Cloudy
11:15 AM 71.6 °F 60.8 °F 69% 30.00 in 9.0 mi SSW 8.1 mph - N/A   Scattered Clouds
11:35 AM 73.4 °F 62.6 °F 69% 30.00 in 10.0 mi South 10.4 mph - N/A   Partly Cloudy
11:55 AM 73.4 °F 62.6 °F 69% 29.99 in 9.0 mi SSE 4.6 mph - N/A   Partly Cloudy
12:15 PM 75.2 °F 60.8 °F 61% 29.99 in 10.0 mi SSW 5.8 mph - N/A   Clear
12:35 PM 75.2 °F 60.8 °F 61% 29.99 in 10.0 mi South 6.9 mph - N/A   Clear
12:55 PM 77.0 °F 60.8 °F 57% 29.98 in 9.0 mi South 8.1 mph - N/A   Clear
1:15 PM 78.8 °F 60.8 °F 54% 29.96 in 10.0 mi South 9.2 mph - N/A   Clear
1:35 PM 78.8 °F 60.8 °F 54% 29.95 in 10.0 mi South 8.1 mph - N/A   Clear
1:55 PM 78.8 °F 59.0 °F 51% 29.95 in 10.0 mi SSW 12.7 mph - N/A   Clear
2:15 PM 78.8 °F 60.8 °F 54% 29.95 in 10.0 mi South 8.1 mph 16.1 mph N/A   Clear
2:35 PM 78.8 °F 60.8 °F 54% 29.95 in 10.0 mi South 6.9 mph 16.1 mph N/A   Clear
2:55 PM 78.8 °F 60.8 °F 54% 29.94 in 10.0 mi SSW 11.5 mph 19.6 mph N/A   Clear
3:15 PM 78.8 °F 60.8 °F 54% 29.94 in 10.0 mi South 8.1 mph 17.3 mph N/A   Clear
3:35 PM 78.8 °F 60.8 °F 54% 29.94 in 10.0 mi South 8.1 mph 18.4 mph N/A   Clear
3:55 PM 77.0 °F 62.6 °F 61% 29.94 in 10.0 mi South 12.7 mph 19.6 mph N/A   Clear
4:15 PM 77.0 °F 62.6 °F 61% 29.94 in 10.0 mi SE 8.1 mph 18.4 mph N/A   Scattered Clouds
4:35 PM 75.2 °F 60.8 °F 61% 29.93 in 10.0 mi South 6.9 mph 20.7 mph N/A   Partly Cloudy
4:55 PM 75.2 °F 62.6 °F 65% 29.93 in 10.0 mi SSE 12.7 mph 19.6 mph N/A   Partly Cloudy
5:15 PM 73.4 °F 62.6 °F 69% 29.93 in 10.0 mi SSE 10.4 mph - N/A   Partly Cloudy
5:35 PM 73.4 °F 62.6 °F 69% 29.93 in 10.0 mi South 5.8 mph 17.3 mph N/A   Clear
5:55 PM 73.4 °F 62.6 °F 69% 29.92 in 7.0 mi SE 5.8 mph - N/A   Clear
6:15 PM 73.4 °F 62.6 °F 69% 29.92 in 9.0 mi South 5.8 mph - N/A   Clear
6:35 PM 71.6 °F 62.6 °F 73% 29.92 in 9.0 mi SSE 4.6 mph - N/A   Clear
6:55 PM 71.6 °F 62.6 °F 73% 29.92 in 10.0 mi Calm Calm - N/A   Clear
7:15 PM 71.6 °F 62.6 °F 73% 29.92 in 10.0 mi Calm Calm - N/A   Clear
7:35 PM 69.8 °F 64.4 °F 83% 29.92 in 10.0 mi Calm Calm - N/A   Clear
7:55 PM 69.8 °F 62.6 °F 78% 29.92 in 10.0 mi Calm Calm - N/A   Clear
8:15 PM 66.2 °F 62.6 °F 88% 29.93 in 10.0 mi Calm Calm - N/A   Clear
8:35 PM 64.4 °F 62.6 °F 94% 29.93 in 10.0 mi Calm Calm - N/A   Clear
8:55 PM 64.4 °F 62.6 °F 94% 29.93 in 10.0 mi Calm Calm - N/A   Clear
9:15 PM 64.4 °F 60.8 °F 88% 29.96 in 10.0 mi Calm Calm - N/A   Clear
9:35 PM 64.4 °F 62.6 °F 94% 29.95 in 10.0 mi Calm Calm - N/A   Clear
9:55 PM 62.6 °F 62.6 °F 100% 29.95 in 10.0 mi Calm Calm - N/A   Clear
10:15 PM 64.4 °F 62.6 °F 94% 29.95 in 10.0 mi SSE 3.5 mph - N/A   Clear
10:35 PM 69.8 °F 64.4 °F 83% 29.94 in 10.0 mi SSE 4.6 mph - N/A   Clear
10:55 PM 69.8 °F 64.4 °F 83% 29.94 in 10.0 mi SSE 4.6 mph - N/A   Clear
11:15 PM 69.8 °F 64.4 °F 83% 29.95 in 10.0 mi South 4.6 mph - N/A   Clear
11:35 PM 69.8 °F 66.2 °F 88% 29.97 in 10.0 mi SSW 8.1 mph - N/A   Mostly Cloudy
11:55 PM 69.8 °F 66.2 °F 88% 29.96 in 10.0 mi South 3.5 mph - N/A   Overcast